Weather reports worldwide

Advertisment
Threave, United Kingdom (99090): temperature & dewpoint: 14.10.2017 22:00:00 - 20.10.2017 22:00:00 (BST)Threave, United Kingdom (99090): temperature -20cm & temperature -100cm: 14.10.2017 22:00:00 - 20.10.2017 22:00:00 (BST)Threave, United Kingdom (99090): precipitation: 14.10.2017 22:00:00 - 20.10.2017 22:00:00 (BST)
Date & Time tt [°C] td [°C] tt -20cm [°C] tt -100cm [°C] rr [mm]
20.10.2017 22:00:00 - - - - -
20.10.2017 21:00:00 - - - - 0,0
20.10.2017 20:00:00 10,6 6,6 - - 0,0
20.10.2017 19:00:00 10,7 7,3 - - 0,0
20.10.2017 18:00:00 11,1 7,8 - - 0,0
20.10.2017 17:00:00 11,7 9,9 - - 0,0
20.10.2017 16:00:00 12,1 9,6 - - 0,0
20.10.2017 15:00:00 12,9 10,3 - - 0,0
20.10.2017 14:00:00 15,0 11,5 - - 0,0
20.10.2017 13:00:00 16,6 12,1 - - 0,0
20.10.2017 12:00:00 13,8 11,8 - - 0,0
20.10.2017 11:00:00 12,6 12,1 - - 0,0
20.10.2017 10:00:00 11,6 11,5 12,7 12,7 0,0
20.10.2017 09:00:00 10,6 10,5 - - 0,0
20.10.2017 08:00:00 9,8 9,7 - - 0,0
20.10.2017 07:00:00 9,8 9,4 - - 0,0
20.10.2017 06:00:00 11,2 11,0 - - 0,0
20.10.2017 05:00:00 11,2 11,0 - - 0,0
20.10.2017 04:00:00 11,7 11,5 - - 0,4
20.10.2017 03:00:00 11,8 11,6 - - 2,4
20.10.2017 02:00:00 11,7 11,5 - - 2,6
20.10.2017 01:00:00 11,7 11,4 - - 0,8
20.10.2017 00:00:00 11,7 11,4 - - 0,0
19.10.2017 23:00:00 11,7 11,4 - - 0,0
19.10.2017 22:00:00 11,5 11,1 - - 0,0
19.10.2017 21:00:00 11,6 11,2 - - 0,2
19.10.2017 20:00:00 11,8 11,3 - - 0,2
19.10.2017 19:00:00 11,9 11,1 - - 0,2
19.10.2017 18:00:00 12,4 11,4 - - 0,8
19.10.2017 17:00:00 13,1 10,9 - - 0,2
19.10.2017 16:00:00 13,5 10,7 - - 0,0
19.10.2017 15:00:00 13,9 10,5 - - 0,0
19.10.2017 14:00:00 14,3 10,9 - - 0,0
19.10.2017 13:00:00 14,3 11,6 - - 0,0
19.10.2017 12:00:00 13,2 10,7 - - 0,0
19.10.2017 11:00:00 12,8 10,6 - - 0,0
19.10.2017 10:00:00 12,1 11,0 12,5 12,7 0,0
19.10.2017 09:00:00 11,9 10,6 - - 0,0
19.10.2017 08:00:00 11,7 10,6 - - 0,2
19.10.2017 07:00:00 11,8 10,8 - - 0,0
19.10.2017 06:00:00 12,0 10,6 - - 0,0
19.10.2017 05:00:00 11,8 10,6 - - 0,0
19.10.2017 04:00:00 11,8 10,2 - - 0,0
19.10.2017 03:00:00 11,9 10,2 - - 0,0
19.10.2017 02:00:00 11,9 10,0 - - 0,0
19.10.2017 01:00:00 11,8 9,8 - - 0,0
19.10.2017 00:00:00 12,0 9,8 - - 0,0
18.10.2017 23:00:00 10,8 9,0 - - 0,0
18.10.2017 22:00:00 10,6 8,8 - - 0,0
18.10.2017 21:00:00 10,9 8,5 - - 0,0
18.10.2017 20:00:00 11,0 8,3 - - 0,0
18.10.2017 19:00:00 11,4 8,5 - - 0,0
18.10.2017 18:00:00 11,9 7,8 - - 0,0
18.10.2017 17:00:00 12,8 7,4 - - 0,0
18.10.2017 16:00:00 13,9 7,3 - - 0,0
18.10.2017 15:00:00 13,7 8,3 - - 0,0
18.10.2017 14:00:00 14,2 8,3 - - 0,0
18.10.2017 13:00:00 13,7 8,6 - - 0,0
18.10.2017 12:00:00 12,0 10,0 - - 0,0
18.10.2017 11:00:00 11,0 10,7 - - 0,0
18.10.2017 10:00:00 9,2 9,2 12,7 12,7 0,0
18.10.2017 09:00:00 8,0 8,0 - - 0,0
18.10.2017 08:00:00 7,4 7,3 - - 0,0
18.10.2017 07:00:00 6,9 6,8 - - 0,0
18.10.2017 06:00:00 6,6 6,5 - - 0,0
18.10.2017 05:00:00 6,4 6,2 - - 0,0
18.10.2017 04:00:00 6,3 6,2 - - 0,0
18.10.2017 03:00:00 5,1 4,9 - - 0,0
18.10.2017 02:00:00 5,4 5,1 - - 0,2
18.10.2017 01:00:00 6,2 5,9 - - 0,0
18.10.2017 00:00:00 6,4 5,8 - - 0,0
17.10.2017 23:00:00 7,8 7,5 - - 0,0
17.10.2017 22:00:00 7,8 7,3 - - 0,0
17.10.2017 21:00:00 8,6 7,8 - - 0,0
17.10.2017 20:00:00 9,3 8,3 - - 0,2
17.10.2017 19:00:00 10,3 9,2 - - 0,2
17.10.2017 18:00:00 11,1 8,6 - - 0,0
17.10.2017 17:00:00 12,9 9,5 - - 0,0
17.10.2017 16:00:00 11,6 9,7 - - 0,2
17.10.2017 15:00:00 13,8 10,0 - - 0,0
17.10.2017 14:00:00 13,8 10,3 - - 0,0
17.10.2017 13:00:00 12,0 9,0 - - 0,0
17.10.2017 12:00:00 11,1 9,1 - - 0,0
17.10.2017 11:00:00 11,4 8,3 - - 0,0
17.10.2017 10:00:00 11,2 8,1 12,9 12,7 0,0
17.10.2017 09:00:00 11,1 8,1 - - 0,0
17.10.2017 08:00:00 11,1 8,0 - - 0,0
17.10.2017 07:00:00 11,2 8,0 - - 0,0
17.10.2017 06:00:00 11,3 7,9 - - 0,0
17.10.2017 05:00:00 11,7 7,8 - - 0,0
17.10.2017 04:00:00 11,9 8,2 - - 0,0
17.10.2017 03:00:00 12,3 8,4 - - 0,0
17.10.2017 02:00:00 13,0 9,2 - - 0,0
17.10.2017 01:00:00 13,1 9,9 - - 0,0
17.10.2017 00:00:00 13,4 10,6 - - 0,0
16.10.2017 23:00:00 13,4 10,6 - - 0,0
16.10.2017 22:00:00 13,2 10,6 - - 0,0
16.10.2017 21:00:00 12,9 10,9 - - 0,6
16.10.2017 20:00:00 12,3 11,3 - - 1,4
16.10.2017 19:00:00 12,2 10,5 - - 0,2
16.10.2017 18:00:00 14,4 8,5 - - 0,0
16.10.2017 17:00:00 15,0 9,0 - - 0,0
16.10.2017 16:00:00 15,5 9,6 - - 0,0
16.10.2017 15:00:00 16,9 14,0 - - 0,0
16.10.2017 14:00:00 16,7 13,9 - - 0,0
16.10.2017 13:00:00 15,2 13,2 - - 0,0
16.10.2017 12:00:00 14,4 13,0 - - 0,0
16.10.2017 11:00:00 13,1 12,8 - - 0,0
16.10.2017 10:00:00 12,4 12,2 13,0 12,7 1,2
16.10.2017 09:00:00 12,5 12,3 - - 0,6
16.10.2017 08:00:00 13,0 12,8 - - 0,0
16.10.2017 07:00:00 12,8 12,8 - - 0,0
16.10.2017 06:00:00 11,6 11,4 - - 0,2
16.10.2017 05:00:00 11,1 10,9 - - 0,2
16.10.2017 04:00:00 10,8 10,6 - - 0,2
16.10.2017 03:00:00 10,8 10,6 - - 0,2
16.10.2017 02:00:00 10,7 10,4 - - 0,4
16.10.2017 01:00:00 10,8 10,4 - - 0,2
16.10.2017 00:00:00 11,2 10,4 - - 0,0
15.10.2017 23:00:00 11,2 10,6 - - 0,0
15.10.2017 22:00:00 11,2 10,2 - - 0,0
15.10.2017 21:00:00 11,2 10,2 - - 0,0
15.10.2017 20:00:00 11,8 10,7 - - 0,0
15.10.2017 19:00:00 12,5 11,2 - - 0,0
15.10.2017 18:00:00 14,0 13,7 - - 0,2
15.10.2017 17:00:00 14,1 13,6 - - 0,0
15.10.2017 16:00:00 14,2 13,6 - - 0,2
15.10.2017 15:00:00 14,2 13,4 - - 0,6
15.10.2017 14:00:00 14,4 12,9 - - 0,0
15.10.2017 13:00:00 14,4 12,6 - - 0,0
15.10.2017 12:00:00 14,3 12,4 - - 0,0
15.10.2017 11:00:00 14,4 12,3 - - 0,0
15.10.2017 10:00:00 14,2 11,7 12,9 12,7 0,0
15.10.2017 09:00:00 14,0 11,4 - - 0,0
15.10.2017 08:00:00 13,8 12,3 - - 0,0
15.10.2017 07:00:00 13,8 12,3 - - 0,0
15.10.2017 06:00:00 14,0 12,6 - - 0,0
15.10.2017 05:00:00 14,2 12,7 - - 0,2
15.10.2017 04:00:00 14,5 12,8 - - 0,0
15.10.2017 03:00:00 14,2 12,8 - - 0,0
15.10.2017 02:00:00 14,5 12,6 - - 0,0
15.10.2017 01:00:00 14,5 12,8 - - 0,0
15.10.2017 00:00:00 14,5 12,5 - - 0,0
14.10.2017 23:00:00 14,4 12,7 - - 0,0
14.10.2017 22:00:00 14,4 12,7 - - 0,0

tt = temperature
td = dewpoint
tt -20cm = temperature -20cm
tt -100cm = temperature -100cm
rr = precipitation

Next stations